[[{"header":{"parameterUnit":"m.s-1","parameterCategory":1,"la1":30.2991,"la2":30.254,"lo1":-89.0895,"lo2":-89.0444,"dy":0.0017,"dx":0.0017,"nx":28,"ny":28,"refTime":"2025-05-22T21:00:00:Z","depth":0,"parameterNumber":2,"parameterNumberName":"U-component_of_WINDS"},"data":[0,0,0,0,0,0,0,0,0,0,0,0,0,0,0,0,0,0,0,0,0,0,0,0,0,0,0,0,0,0,0,0,0,0,0,0,0,0,0,0,0,0,0,0,0,0,0,0,0,0,0,0,0,0,0,0,0,0,-0.4075,-0.4074,0,-0.3968,-0.3967,-0.3966,-0.3911,-0.3911,-0.3911,-0.391,-0.3803,-0.38,-0.3797,0,0,0,0,0,0,0,0,0,0,0,0,0,-0.4231,-0.4229,-0.4075,-0.4073,-0.4072,-0.3969,-0.3967,-0.3966,-0.3911,-0.3911,-0.3911,-0.391,-0.3804,-0.38,-0.3797,0,0,0,0,0,0,0,0,0,0,0,0,0,-0.4148,-0.4228,-0.4075,-0.4032,-0.4027,-0.3969,-0.3967,-0.3965,-0.3911,-0.3911,-0.391,-0.391,-0.3805,-0.3801,-0.3796,-0.3773,0,0,-0.3784,-0.3782,0,0,0,0,0,0,0,0,-0.4153,-0.4143,-0.404,-0.4035,-0.4029,-0.3953,-0.3983,-0.3901,-0.3911,-0.3955,-0.391,-0.391,-0.3853,-0.3845,-0.3825,-0.3768,-0.3763,-0.3783,-0.3781,-0.3779,-0.3778,0,0,0,0,0,0,0,-0.4159,-0.4147,-0.4033,-0.4038,-0.4032,-0.4019,-0.4007,-0.3967,-0.3906,-0.3951,-0.3947,-0.3935,-0.385,-0.3829,-0.3822,-0.3762,-0.3783,-0.378,-0.3777,-0.3775,-0.3681,-0.3681,0,0,0,0,0,0,-0.4171,-0.4152,-0.4036,-0.403,-0.4092,-0.4016,-0.4003,-0.3977,-0.3906,-0.3895,-0.3935,-0.3933,-0.3836,-0.3827,-0.3818,-0.3786,-0.3779,-0.3775,-0.3773,-0.3681,-0.3681,-0.3681,0,0,0,0,0,0,-0.4175,-0.4162,-0.404,-0.409,-0.4073,-0.4013,-0.3986,-0.3975,-0.3955,-0.3894,-0.3883,-0.3925,-0.3836,-0.3824,-0.3785,-0.3781,-0.3773,-0.3769,-0.3681,-0.3681,-0.3681,-0.3722,0,0,0,0,0,0,-0.418,-0.4163,-0.4153,-0.409,-0.4071,-0.4008,-0.3985,-0.3973,-0.3947,-0.3943,-0.3882,-0.3871,-0.3835,-0.3791,-0.378,-0.3775,-0.3766,-0.3681,-0.3681,-0.3681,-0.372,-0.3723,-0.3726,0,0,0,0,0,-0.4185,-0.4169,-0.4153,-0.4139,-0.4057,-0.4008,-0.3998,-0.3956,-0.3947,-0.3937,-0.3898,-0.3873,-0.3784,-0.3788,-0.3775,-0.3769,-0.3681,-0.3681,-0.3681,-0.3719,-0.3723,-0.3725,0,0,0,0,0,0,-0.4234,-0.416,-0.4141,-0.4104,-0.4063,-0.3999,-0.3985,-0.396,-0.3921,-0.3919,-0.3869,-0.3855,-0.3821,-0.3791,-0.3797,-0.3743,-0.373,-0.3727,-0.3763,-0.3766,-0.3769,-0.3776,-0.3763,0,0,0,0,0,-0.424,-0.4207,-0.4144,-0.4117,-0.4097,-0.4045,-0.4022,-0.3993,-0.3949,-0.3931,-0.389,-0.3848,-0.381,-0.3787,-0.3749,-0.3716,-0.3702,-0.3706,-0.3708,-0.3711,-0.3709,-0.369,-0.3691,-0.3681,-0.3681,-0.3681,0,0,-0.4253,-0.4209,-0.419,-0.4126,-0.409,-0.4057,-0.4031,-0.3996,-0.3971,-0.3926,-0.3886,-0.3855,-0.3805,-0.3769,-0.3751,-0.3743,-0.3709,-0.3711,-0.3713,-0.371,-0.369,-0.3691,-0.3692,-0.3681,-0.3681,-0.3681,0,0,-0.4259,-0.4222,-0.4196,-0.4161,-0.4108,-0.4073,-0.4067,-0.4007,-0.3984,-0.3943,-0.3909,-0.3879,-0.3815,-0.3781,-0.3756,-0.375,-0.3726,-0.3739,-0.3752,-0.3734,-0.3735,-0.3736,-0.3734,-0.3733,-0.3738,-0.3738,-0.3738,0,-0.4282,-0.423,-0.4185,-0.4153,-0.4126,-0.4083,-0.4057,-0.4025,-0.3963,-0.3945,-0.3937,-0.3857,-0.382,-0.3776,-0.3775,-0.3755,-0.3747,-0.3745,-0.3739,-0.3738,-0.3738,-0.3736,-0.3735,-0.374,-0.374,-0.3739,-0.3739,0,-0.426,-0.4225,-0.421,-0.415,-0.4122,-0.4092,-0.4044,-0.402,-0.3994,-0.3961,-0.392,-0.3875,-0.3828,-0.3815,-0.379,-0.3767,-0.3764,-0.3748,-0.3734,-0.3742,-0.3739,-0.3738,-0.3743,-0.3742,-0.3741,-0.3741,0,0,-0.4294,-0.421,-0.4205,-0.4178,-0.4117,-0.4089,-0.4058,-0.4011,-0.3992,-0.3951,-0.3924,-0.3871,-0.3856,-0.3827,-0.3797,-0.3782,-0.378,-0.3767,-0.3765,-0.3771,-0.3754,-0.3766,-0.3766,-0.3764,-0.3764,-0.3764,-0.3758,0,-0.4291,-0.4233,-0.4192,-0.415,-0.4117,-0.4077,-0.405,-0.401,-0.3978,-0.3946,-0.3911,-0.3874,-0.3857,-0.3839,-0.3822,-0.3784,-0.3776,-0.3784,-0.3739,-0.3738,-0.3752,-0.3764,-0.3776,-0.3773,-0.3756,-0.3756,-0.3756,0,-0.428,-0.424,-0.4194,-0.4137,-0.4121,-0.4098,-0.4052,-0.4021,-0.3976,-0.3953,-0.3922,-0.3891,-0.3858,-0.3847,-0.3801,-0.3807,-0.3786,-0.3765,-0.3764,-0.3758,-0.3747,-0.3758,-0.3771,-0.3771,-0.3754,-0.3754,-0.3754,0,-0.4309,-0.4243,-0.4208,-0.4185,-0.4118,-0.4102,-0.4073,-0.4027,-0.4002,-0.3962,-0.3945,-0.3902,-0.3878,-0.3846,-0.3806,-0.3802,-0.3763,-0.3749,-0.3744,-0.3745,-0.3737,-0.3738,-0.3747,-0.3725,-0.3725,-0.3725,-0.3725,0,-0.431,-0.4284,-0.422,-0.4198,-0.4167,-0.4121,-0.4093,-0.4061,-0.402,-0.3992,-0.3955,-0.3929,-0.3877,-0.3845,-0.3813,-0.378,-0.3769,-0.3751,-0.3743,-0.3754,-0.3756,-0.3739,-0.3738,-0.3725,-0.3725,-0.3725,-0.3725,0,-0.4337,-0.4293,-0.4251,-0.4191,-0.4175,-0.4155,-0.4103,-0.4081,-0.4047,-0.4012,-0.4001,-0.3948,-0.3909,-0.3865,-0.3811,-0.379,-0.3758,-0.3747,-0.3774,-0.3769,-0.3766,-0.3767,-0.3764,-0.3762,-0.3742,-0.3742,-0.3742,0,-0.4341,-0.432,-0.4257,-0.4235,-0.4206,-0.4172,-0.4145,-0.41,-0.4074,-0.402,-0.4005,-0.3962,-0.3926,-0.3865,-0.3823,-0.3782,-0.3769,-0.377,-0.3762,-0.3774,-0.3768,-0.377,-0.3768,-0.3773,-0.3773,-0.3774,-0.3774,0,-0.4352,-0.4331,-0.4295,-0.425,-0.422,-0.4183,-0.4145,-0.4129,-0.4076,-0.4049,-0.4008,-0.398,-0.3925,-0.3884,-0.3838,-0.3809,-0.3783,-0.3777,-0.3774,-0.3785,-0.3801,-0.3792,-0.378,-0.3777,-0.3777,-0.3777,-0.3776,-0.3776,-0.4367,-0.4347,-0.4299,-0.4259,-0.4226,-0.4191,-0.4167,-0.413,-0.4095,-0.4046,-0.4021,-0.3981,-0.3936,-0.3871,-0.3843,-0.3811,-0.3803,-0.3798,-0.3797,-0.3796,-0.3799,-0.3807,-0.3803,-0.3803,-0.3802,-0.3802,-0.3802,0,-0.4377,-0.4344,-0.4308,-0.4255,-0.4224,-0.4202,-0.4159,-0.4135,-0.4099,-0.4059,-0.4024,-0.3978,-0.3938,-0.3892,-0.3849,-0.3833,-0.382,-0.3823,-0.3824,-0.3818,-0.3809,-0.3816,-0.3834,-0.3834,-0.3834,-0.3834,-0.3834,-0.3834,-0.4378,-0.4342,-0.4315,-0.4262,-0.423,-0.4189,-0.4166,-0.4134,-0.4102,-0.4052,-0.4018,-0.3988,-0.3946,-0.39,-0.3863,-0.3851,-0.3837,-0.3843,-0.3828,-0.3821,-0.3818,-0.3816,-0.3822,-0.3841,-0.3841,-0.3839,-0.3839,-0.3839]},{"header":{"parameterUnit":"m.s-1","parameterCategory":1,"la1":30.2991,"la2":30.254,"lo1":-89.0895,"lo2":-89.0444,"dy":0.0017,"dx":0.0017,"nx":28,"ny":28,"refTime":"2025-05-22T21:00:00:Z","depth":0,"parameterNumber":3,"parameterNumberName":"V-component_of_WINDS"},"data":[0,0,0,0,0,0,0,0,0,0,0,0,0,0,0,0,0,0,0,0,0,0,0,0,0,0,0,0,0,0,0,0,0,0,0,0,0,0,0,0,0,0,0,0,0,0,0,0,0,0,0,0,0,0,0,0,0,0,3.8642,3.8641,0,3.8568,3.8567,3.8566,3.8547,3.8547,3.8547,3.8548,3.8466,3.8464,3.8461,0,0,0,0,0,0,0,0,0,0,0,0,0,3.8762,3.876,3.8642,3.8641,3.864,3.8568,3.8567,3.8566,3.8546,3.8547,3.8548,3.8548,3.8467,3.8464,3.8461,0,0,0,0,0,0,0,0,0,0,0,0,0,3.8701,3.8759,3.8642,3.8622,3.8619,3.8568,3.8567,3.8566,3.8546,3.8547,3.8548,3.8548,3.8468,3.8465,3.8461,3.8423,0,0,3.8449,3.8447,0,0,0,0,0,0,0,0,3.8704,3.8696,3.8626,3.8623,3.862,3.8567,3.8579,3.8518,3.8546,3.8574,3.8548,3.8549,3.8499,3.8493,3.8477,3.8419,3.8416,3.8448,3.8446,3.8444,3.8443,0,0,0,0,0,0,0,3.8708,3.8699,3.8613,3.8625,3.8621,3.8615,3.8607,3.8568,3.8533,3.8572,3.857,3.8562,3.8498,3.8481,3.8475,3.8414,3.8449,3.8445,3.8443,3.8441,3.8321,3.832,0,0,0,0,0,0,3.8717,3.8703,3.8615,3.861,3.8665,3.8612,3.8603,3.8584,3.8534,3.8527,3.8561,3.8561,3.8487,3.848,3.8472,3.8425,3.8444,3.8441,3.8439,3.8322,3.8321,3.832,0,0,0,0,0,0,3.872,3.8709,3.8618,3.8656,3.8644,3.8609,3.8587,3.8582,3.8565,3.8526,3.8519,3.8551,3.8487,3.8478,3.8436,3.8421,3.8439,3.8435,3.8323,3.8322,3.8321,3.8329,0,0,0,0,0,0,3.8723,3.871,3.8697,3.8656,3.8642,3.8584,3.8586,3.858,3.8559,3.8558,3.8514,3.8508,3.8487,3.8442,3.8432,3.8416,3.8432,3.8324,3.8323,3.8321,3.833,3.8328,3.8327,0,0,0,0,0,3.8727,3.8701,3.8696,3.8686,3.8625,3.8584,3.8575,3.8554,3.8558,3.8543,3.8518,3.8509,3.8425,3.8437,3.8426,3.8409,3.8325,3.8323,3.8321,3.8331,3.8329,3.8327,0,0,0,0,0,0,3.8738,3.8695,3.8689,3.8649,3.8621,3.858,3.8561,3.8552,3.852,3.852,3.8493,3.8484,3.8444,3.8422,3.8437,3.837,3.8375,3.837,3.8386,3.8384,3.8382,3.8388,3.8429,0,0,0,0,0,3.8737,3.8709,3.8671,3.8639,3.8626,3.8596,3.8577,3.8563,3.8531,3.8519,3.849,3.8458,3.8425,3.8403,3.837,3.8327,3.8317,3.831,3.8308,3.8307,3.8304,3.828,3.8276,3.8314,3.8314,3.8314,0,0,3.8732,3.8705,3.8688,3.8641,3.8617,3.8587,3.8586,3.8554,3.8531,3.8513,3.8472,3.8451,3.8413,3.8371,3.8351,3.8352,3.8291,3.8305,3.8305,3.8301,3.8277,3.8274,3.8271,3.8313,3.8313,3.8313,0,0,3.8708,3.8685,3.8656,3.8632,3.8597,3.8577,3.8571,3.8532,3.8517,3.8476,3.8463,3.8434,3.8377,3.8351,3.833,3.8297,3.8287,3.8286,3.8278,3.8255,3.8252,3.8249,3.8237,3.8233,3.8283,3.8283,3.8283,0,3.8706,3.8662,3.8642,3.8611,3.859,3.8575,3.8545,3.8522,3.8477,3.8462,3.8464,3.8393,3.8366,3.8318,3.831,3.8293,3.8284,3.8291,3.8254,3.8251,3.8248,3.8237,3.8232,3.8283,3.8283,3.8283,3.8283,0,3.8661,3.863,3.8611,3.857,3.8547,3.8517,3.849,3.8469,3.8458,3.8438,3.8396,3.8364,3.8324,3.8311,3.8299,3.8261,3.8263,3.826,3.8264,3.8245,3.8234,3.8229,3.8283,3.8283,3.8283,3.8283,0,0,3.8641,3.859,3.8583,3.8565,3.8525,3.85,3.8468,3.8431,3.8414,3.8383,3.8355,3.8307,3.8305,3.8281,3.8265,3.8245,3.8221,3.8245,3.8243,3.8241,3.8177,3.8179,3.8175,3.8215,3.8214,3.8213,3.818,0,3.8612,3.8557,3.8538,3.8492,3.8464,3.8449,3.8421,3.8393,3.8374,3.8345,3.8322,3.8289,3.8289,3.8274,3.8254,3.8228,3.8208,3.823,3.8187,3.8186,3.8197,3.8169,3.8171,3.8141,3.8176,3.8175,3.8174,0,3.857,3.8541,3.8493,3.8458,3.8445,3.842,3.8385,3.8359,3.8326,3.8313,3.8287,3.8273,3.8238,3.8245,3.8196,3.8212,3.8193,3.8178,3.8176,3.8171,3.8179,3.8162,3.8131,3.8127,3.8167,3.8167,3.8168,0,3.8561,3.8509,3.8474,3.8458,3.8416,3.8399,3.838,3.8348,3.8327,3.8296,3.8282,3.8246,3.8226,3.8198,3.8175,3.8182,3.8128,3.8132,3.8115,3.8116,3.8104,3.8105,3.807,3.8092,3.8092,3.8092,3.8092,0,3.853,3.8501,3.8469,3.8448,3.8414,3.8393,3.836,3.8339,3.8311,3.8284,3.8269,3.8243,3.8214,3.8184,3.8165,3.8127,3.8118,3.8106,3.8101,3.8107,3.8109,3.8094,3.8096,3.8091,3.8091,3.8092,3.8092,0,3.8513,3.8491,3.8452,3.8415,3.8405,3.8383,3.835,3.8328,3.8308,3.8274,3.8265,3.8233,3.8197,3.8171,3.8124,3.8112,3.8071,3.8066,3.8083,3.8081,3.8065,3.8067,3.8019,3.8011,3.8039,3.8039,3.8039,0,3.8495,3.8473,3.8435,3.8417,3.8399,3.8369,3.8348,3.8326,3.8304,3.8266,3.8248,3.8211,3.8181,3.8125,3.8096,3.8061,3.8055,3.804,3.8049,3.8056,3.8054,3.8056,3.8053,3.8039,3.8039,3.8039,3.8038,0,3.8465,3.8456,3.8428,3.8396,3.8372,3.8345,3.8317,3.8303,3.8275,3.8251,3.8216,3.8193,3.8146,3.811,3.8072,3.805,3.8039,3.8036,3.803,3.8036,3.8047,3.8041,3.808,3.8037,3.8037,3.8037,3.8037,3.8037,3.8447,3.8427,3.8397,3.8366,3.8344,3.8319,3.8296,3.8275,3.8245,3.8207,3.8195,3.8158,3.8125,3.8073,3.8051,3.8021,3.8021,3.8013,3.8011,3.8009,3.8009,3.8052,3.8014,3.8014,3.8014,3.8014,3.8014,0,3.8417,3.8397,3.8369,3.8333,3.8308,3.8302,3.8271,3.8251,3.8219,3.8191,3.8162,3.8121,3.8086,3.8056,3.8019,3.8001,3.7995,3.7992,3.7993,3.7988,3.8011,3.802,3.7997,3.7997,3.7997,3.7997,3.7997,3.7997,3.8398,3.8363,3.835,3.8304,3.8284,3.825,3.8233,3.8209,3.8187,3.8143,3.8114,3.8095,3.8066,3.8027,3.7994,3.7986,3.7973,3.7972,3.7962,3.7984,3.7986,3.7988,3.7996,3.7969,3.7969,3.7941,3.7941,3.7941]}]]